User: anonymous   Login
Location: Unspecified
(0.0000°N, 0.0000°E)
Time: 01:59:08
(UTC+00:00)
Language:

50 SAT - Orbit

View from above orbital plane
View from above orbital plane
View from above satellite
View from above satellite

Ground track
Ground track

The orbit data is extracted from the following two-line orbital elements,

1 39436U 13066W   17325.26491562  .00091946  00000-0  16636-2 0  9997
2 39436  97.7145  80.0494 0007816 235.0476 125.0041 15.49312349220855
Epoch (UTC): 21 November 2017 06:21:28
Eccentricity: 0.0007816
inclination: 97.7145°
perigee height: 413 km
apogee height: 424 km
right ascension of ascending node: 80.0494°
argument of perigee: 235.0476°
revolutions per day: 15.49312349
mean anomaly at epoch: 125.0041°
orbit number at epoch: 22085

The dashed part of the orbit path shows where the satellite is in the earth's shadow,  

DLR